Location: East Guldeford
(50.9500°N, 0.7500°E)
Time: 08:41:11
(UTC+00:00)

Meteor 1-15 Rocket - Pass Details

Date: 12 May 2021
Orbit: 840 x 907 km, 81.2° (Epoch: 16 June)

Event Time Altitude Azimuth Distance (km) Brightness Sun altitude
Rises 23:40:05 0° 349° (NNW) 3,438 8.9 -20.6°
Reaches altitude 10° 23:42:32 10° 352° (N) 2,506 7.9 -20.6°
Maximum altitude 23:48:12 63° 74° (ENE) 966 4.5 -20.7°
Enters shadow 23:50:44 33° 144° (SE) 1,423 4.9 -20.7°
